STARLINK-35961, 66530

Orbit data source: Space-Track

STARLINK-35961, 66530 is a payload satellite owned by SpaceX/Seattle (US) in LEO that was launched on Wed, 19 Nov 2025 UTC via an FALCON 9 launch vehicle from the Air Force Eastern Test Range (AFETR). Payload-class satellites include a variety of spacecraft equipped with specific instruments for various scientific and technological missions. These include communications satellites like Starlink; space stations such as the ISS; scientific satellites like the Hubble; Earth observation satellites from companies like Planet Labs, Umbra, and HawkEye 360; GPS; miniature CubeSats for education and research; and military/defense satellites.

Loading next visibility...
Identifier
66530, 2025-265Q
Orbit
LEO
Country
Flag of USUS
Related business
Manufacturer
SpaceX/Seattle
Mission
Operational Commercial Communications
Bus & Motor
STARLINK V2MO, Unknown motor
Mass
575 kg wet, ~530 kg dry
Launch date (UTC)
2025-11-19 (7 months ago)
Launch vehicle
FALCON 9
Launch site
Air Force Eastern Test Range (AFETR)
Object type
Payload
Rocket body
Debris
Shape & HBR
Box + 2 Pan, 17.7 m
Radar Cross Section
36.964 m², Large (>1 m²)

Expand to show TLE details & history
Last TLE update: 21 hours ago

TLE from 21 hours ago
0 STARLINK-35961
1 66530U 25265Q   26170.96627593  .00014254  00000-0  52619-3 0  9995
2 66530  43.0023  60.4795 0001614 278.7228  81.3441 15.27598330 32754
Epoch: 2026-06-19T23:11Z
TLE epoch observation values (Epoch: 2026-06-19T23:11:26.240Z)
Latitude
-0°
Longitude
164.43249°
Altitude
482.603 km
Speed
7.626 km/s
True Right ascension
04h 01m 55s
True Declination
0° 00' 00"
Sunlit
Object was in daylight at epoch
Visualization orbit readout
Latitude
Unknown
Longitude
Unknown
Altitude
Unknown
Speed
Unknown
Apparent Right ascension
Unknown
Apparent Declination
Unknown
Sunlit
N/A
Visualization observer readout
Local Sidereal Time
07:12:38
Azimuth
Unknown
Elevation
Unknown
Doppler factor
Unknown
Orbital elements
Apogee altitude
486.047 km
Perigee altitude
483.831 km
Semi-major axis
6,863.076 km
Eccentricity
0.00016
Inclination
43.0023°
RAAN
60.4795°
Arg. of periapsis
278.7228°
True anomaly
81.36238°
Mean anomaly
81.3441°
Eccentric anomaly
81.35324°
Mean motion
3.81738 °/min
Orbital period
94.31 mins
BSTAR
0.00052619
Loading maneuver chart data...
Computing Atmospheric mass density...
Loading historical data...
Loading historical data...
Loading historical data...
Loading historical data...
Loading historical data...
Loading historical data...
Loading historical data...

Documentation

Showing up to 5 results
|